This demonstration page uses our WeatherBlox Daily Observations layout. Learn more.

Hourly Observations for June 21, 2020

Temp ( °F °C ) Dew Point ( °F °C ) Humidity (%) Winds ( mph kmh ) Pressure ( in mb ) Visibility ( mi km ) Precip ( " mm )
12:15 am 00:15 Mostly Cloudy 64 18 64 18 100 100 Calm 30.02 1017 10 16.0934 0 0
12:35 am 00:35 Cloudy 64 18 64 18 100 100 Calm 30.02 1017 10 16.0934 0 0
12:55 am 00:55 Cloudy 64 18 64 18 100 100 Calm 30.02 1017 10 16.0934 0 0
1:15 am 01:15 Cloudy 64 18 64 18 100 100 Calm 30.01 1016 10 16.0934 0 0
1:35 am 01:35 Cloudy 63 17 63 17 100 100 Calm 30.03 1017 10 16.0934 0 0
1:55 am 01:55 Cloudy 63 17 63 17 100 100 Calm 30.02 1016 10 16.0934 0 0
2:15 am 02:15 Cloudy 64 18 64 18 100 100 Calm 30.01 1016 10 16.0934 0 0
2:35 am 02:35 Cloudy 64 18 64 18 100 100 Calm 30.01 1016 10 16.0934 0 0
2:55 am 02:55 Cloudy 64 18 64 18 100 100 Calm 30.01 1016 10 16.0934 0 0
3:15 am 03:15 Cloudy 63 17 63 17 100 100 Calm 30.02 1016 10 16.0934 0 0
3:35 am 03:35 Cloudy 64 18 64 18 100 100 Calm 30.01 1016 10 16.0934 0 0
3:55 am 03:55 Cloudy 63 17 63 17 100 100 Calm 30.02 1016 10 16.0934 0 0
4:15 am 04:15 Cloudy 63 17 63 17 100 100 Calm 30.02 1016 5 8.0467 0 0
4:35 am 04:35 Cloudy 63 17 63 17 100 100 Calm 30.02 1016 1 1.60934 0 0
4:55 am 04:55 Cloudy 63 17 63 17 100 100 Calm 30.02 1016 1 1.60934 0 0
5:15 am 05:15 Cloudy 63 17 63 17 100 100 Calm 30.02 1016 1.5 2.41401 0 0
5:35 am 05:35 Cloudy 61 16 61 16 100 100 Calm 30.02 1016 4 6.43736 0 0
5:55 am 05:55 Cloudy 61 16 61 16 100 100 Calm 30.02 1016 4 6.43736 0 0
6:15 am 06:15 Cloudy 61 16 61 16 100 100 Calm 30.03 1017 5 8.0467 0 0
6:35 am 06:35 Cloudy 61 16 61 16 100 100 Calm 30.03 1017 4 6.43736 0 0
6:55 am 06:55 Cloudy 61 16 61 16 100 100 Calm 30.04 1017 5 8.0467 0 0
7:15 am 07:15 Cloudy 63 17 63 17 100 100 Calm 30.04 1017 5 8.0467 0 0
7:35 am 07:35 Cloudy 63 17 63 17 100 100 Calm 30.05 1017 7 11.26538 0 0
7:55 am 07:55 Cloudy 63 17 63 17 100 100 Calm 30.05 1017 7 11.26538 0 0
8:15 am 08:15 Cloudy 63 17 63 17 100 100 Calm 30.05 1017 10 16.0934 0 0
8:35 am 08:35 Cloudy 64 18 63 17 94 94 E 5 7 30.04 1017 10 16.0934 0 0
8:55 am 08:55 Cloudy 64 18 63 17 94 94 ENE 5 7 30.04 1017 10 16.0934 0 0
9:15 am 09:15 Cloudy 64 18 64 18 100 100 ENE 3 6 30.04 1017 10 16.0934 0 0
9:35 am 09:35 Cloudy 66 19 63 17 88 88 Calm 30.04 1017 10 16.0934 0 0
9:55 am 09:55 Cloudy 68 20 64 18 88 88 Calm 30.04 1017 10 16.0934 0 0
10:15 am 10:15 Cloudy 70 21 64 18 83 83 Calm 30.04 1017 10 16.0934 0 0
10:35 am 10:35 Cloudy 70 21 64 18 83 83 Calm 30.04 1017 10 16.0934 0 0
10:55 am 10:55 Cloudy 70 21 64 18 83 83 Calm 30.05 1018 10 16.0934 0 0
11:15 am 11:15 Cloudy 70 21 64 18 83 83 SE 5 7 30.05 1018 10 16.0934 0 0
11:35 am 11:35 Cloudy 70 21 64 18 83 83 Calm 30.05 1018 10 16.0934 0 0
11:55 am 11:55 Mostly Cloudy 72 22 64 18 78 78 Calm 30.05 1018 10 16.0934 0 0
12:15 pm 12:15 Partly Cloudy 73 23 64 18 74 74 SSE 5 7 30.05 1018 10 16.0934 0 0
12:35 pm 12:35 Mostly Cloudy 75 24 66 19 74 74 Calm 30.04 1017 10 16.0934 0 0
12:55 pm 12:55 Cloudy 75 24 66 19 74 74 SSE 3 6 30.04 1017 10 16.0934 0 0
1:15 pm 13:15 Mostly Cloudy 75 24 66 19 74 74 Calm 30.04 1017 10 16.0934 0 0
1:35 pm 13:35 Mostly Cloudy 79 26 64 18 61 61 S 3 6 30.02 1017 10 16.0934 0 0
1:55 pm 13:55 Mostly Cloudy 77 25 64 18 65 65 Calm 30.02 1017 10 16.0934 0 0
2:15 pm 14:15 Partly Cloudy 79 26 64 18 61 61 Calm 30.01 1016 10 16.0934 0 0
2:35 pm 14:35 Sunny 79 26 64 18 61 61 Calm 30 1016 10 16.0934 0 0
2:55 pm 14:55 Sunny 81 27 64 18 58 58 SE 3 6 30 1016 10 16.0934 0 0
3:15 pm 15:15 Sunny 81 27 64 18 58 58 SSE 3 6 29.99 1016 10 16.0934 0 0
3:35 pm 15:35 Sunny 82 28 66 19 58 58 Calm 29.99 1016 10 16.0934 0 0
3:55 pm 15:55 Partly Cloudy 82 28 64 18 55 55 WSW 3 6 29.98 1015 10 16.0934 0 0
4:15 pm 16:15 Sunny 82 28 63 17 51 51 Calm 29.98 1015 10 16.0934 0 0
4:35 pm 16:35 Sunny 84 29 64 18 51 51 Calm 29.96 1015 10 16.0934 0 0
4:55 pm 16:55 Sunny 82 28 64 18 55 55 Calm 29.96 1015 10 16.0934 0 0
5:15 pm 17:15 Sunny 84 29 64 18 51 51 Calm 29.95 1014 10 16.0934 0 0
5:35 pm 17:35 Sunny 84 29 64 18 51 51 Calm 29.95 1014 10 16.0934 0 0
5:55 pm 17:55 Partly Cloudy 86 30 63 17 46 46 S 5 7 29.94 1014 10 16.0934 0 0
6:15 pm 18:15 Partly Cloudy 84 29 64 18 51 51 S 3 6 29.94 1014 10 16.0934 0 0
6:35 pm 18:35 Sunny 84 29 66 19 55 55 Calm 29.94 1014 10 16.0934 0 0
6:55 pm 18:55 Partly Cloudy 84 29 66 19 55 55 WSW 5 7 29.93 1014 10 16.0934 0 0
7:15 pm 19:15 Sunny 84 29 66 19 55 55 SW 3 6 29.93 1014 10 16.0934 0 0
7:35 pm 19:35 Sunny 82 28 68 20 62 62 ESE 6 9 29.93 1014 10 16.0934 0 0
7:55 pm 19:55 Sunny 81 27 70 21 70 70 ESE 6 9 29.94 1014 10 16.0934 0 0
8:15 pm 20:15 Sunny 79 26 70 21 74 74 SE 7 11 29.94 1014 10 16.0934 0 0
8:35 pm 20:35 Partly Cloudy 79 26 70 21 74 74 SE 5 7 29.94 1014 10 16.0934 0 0
8:55 pm 20:55 Clear 79 26 70 21 74 74 SSE 6 9 29.95 1014 10 16.0934 0 0
9:15 pm 21:15 Partly Cloudy 79 26 68 20 70 70 SSE 6 9 29.96 1015 10 16.0934 0 0
9:35 pm 21:35 Partly Cloudy 79 26 68 20 70 70 undefined N/A 29.96 1015 10 16.0934 0 0
9:55 pm 21:55 Partly Cloudy 79 26 68 20 70 70 S 8 13 29.97 1015 10 16.0934 0 0
10:15 pm 22:15 Partly Cloudy 77 25 68 20 74 74 S 7 11 29.98 1015 10 16.0934 0 0
10:35 pm 22:35 Partly Cloudy 77 25 68 20 74 74 S 7 11 29.98 1015 10 16.0934 0 0
10:55 pm 22:55 Clear 75 24 68 20 78 78 S 5 7 29.99 1015 10 16.0934 0 0
11:15 pm 23:15 Clear 73 23 68 20 83 83 S 5 7 29.99 1015 10 16.0934 0 0
11:35 pm 23:35 Clear 73 23 68 20 83 83 S 3 6 29.99 1015 10 16.0934 0 0
11:55 pm 23:55 Clear 73 23 68 20 83 83 S 3 6 29.99 1015 10 16.0934 0 0

Powered by AerisWeather